Miscellaneous Local Product
Issued by NWS Hastings, NE

Home | Current Version | Previous Version | Graphics & Text | Print | Product List | Glossary On
Versions: 1 2 3 4 5 6 7 8 9 10 11 12 13 14 15 16 17 18 19 20 21 22 23 24 25 26 27 28 29 30 31 32 33 34 35 36 37 38 39 40 41 42 43 44 45 46 47 48 49 50
000
AXUS43 KGID 192002
MISGRI

GID CWA HOURLY WEATHER ROUNDUP
NATIONAL WEATHER SERVICE HASTINGS NE
300 PM CDT SUN OCT 19 2014

NOTE: "FAIR" INDICATES FEW OR NO CLOUDS BELOW 12,000 FEET WITH NO
SIGNIFICANT WEATHER AND/OR OBSTRUCTIONS TO VISIBILITY.

...SOUTH CENTRAL NEBRASKA...

CITY           SKY/WX    TMP DP  RH WIND       PRES   REMARKS
GRAND ISLAND   MOSUNNY   72  48  42 W14       29.97F
HASTINGS       SUNNY     70  43  37 S10       29.98F
KEARNEY        SUNNY     70  46  43 S9        29.99F
ORD            SUNNY     72  45  37 SW8       29.95F
YORK           SUNNY     72  45  37 SW14G21   29.97F
AURORA         SUNNY     72  42  33 SW9G17    29.96F
LEXINGTON      SUNNY     70  48  44 NW3       29.98F
HOLDREGE       SUNNY     69  46  43 CALM      29.99F
HEBRON         SUNNY     70  44  38 SW13G20   29.99F

...NEBRASKA PANHANDLE...

CITY           SKY/WX    TMP DP  RH WIND       PRES   REMARKS
CHADRON        SUNNY     72  41  32 E3        30.04F
ALLIANCE       SUNNY     74  36  25 N5        30.05F
SCOTTSBLUFF    SUNNY     73  45  36 W6        30.06F
SIDNEY         SUNNY     73  37  27 E8        30.07F

...WESTERN AND NORTH CENTRAL NEBRASKA...

CITY           SKY/WX    TMP DP  RH WIND       PRES   REMARKS
VALENTINE      SUNNY     79  36  21 N9        29.98F
AINSWORTH      SUNNY     76  38  25 N8        29.98F
ONEILL         SUNNY     76  42  29 N7        29.95F
BROKEN BOW     SUNNY     76  47  35 NE8       29.97F
IMPERIAL       SUNNY     76  41  28 NE8       30.00F
NORTH PLATTE   SUNNY     73  45  36 S5        29.99F
MCCOOK         SUNNY     70  47  43 VRB3      29.99F

...EASTERN NEBRASKA...

CITY           SKY/WX    TMP DP  RH WIND       PRES   REMARKS
NORFOLK        SUNNY     73  47  39 W10       29.93F
SO SIOUX CITY  SUNNY     74  47  38 W13       29.91F
TEKAMAH        MOSUNNY   73  46  38 SW20      29.93F
COLUMBUS       MOSUNNY   72  46  40 SW12      29.96F
ALBION         SUNNY     71  46  40 W7        29.95F
OMAHA EPPLEY   PTSUNNY   71  45  39 SW14      29.96F
OFFUTT AFB     PTSUNNY   72  49  44 S12G18    29.95F
MILLARD        PTSUNNY   71  48  43 SW8G16    29.95F
LINCOLN        MOSUNNY   71  46  40 SW14      29.97F
NEBRASKA CITY  MOSUNNY   71  40  33 SW14      29.99F
BEATRICE       SUNNY     71  48  44 SW13      29.99F
FALLS CITY     SUNNY     68  47  46 S12       30.01F

...NORTHERN KANSAS...

CITY           SKY/WX    TMP DP  RH WIND       PRES   REMARKS
GOODLAND       SUNNY     76  41  28 N13       30.01F
HILL CITY      SUNNY     73  47  39 S10       29.97F
NORTON         CLEAR     73  43  33 SE3       29.98S
PHILLIPSBURG   SUNNY     75  46  35 SW7       29.98F HAZE
SMITH CENTER   SUNNY     72  46  40 S13G18    29.99F
BELOIT         SUNNY     73  46  38 S8G18     29.98F
HAYS           SUNNY     73  48  40 S15       29.98F
RUSSELL        SUNNY     71  48  43 S13G22    29.98F
CONCORDIA      SUNNY     71  50  47 SW12G18   30.00F
SALINA         SUNNY     72  50  45 S15       30.02F
TOPEKA         SUNNY     70  47  43 SW8       30.04F



USA.gov is the U.S. government's official web portal to all federal, state and local government web resources and services.